Location: Maiden
(35.5760°N, 81.2120°W)
Time: 01:38:20
(UTC-04:00)

Vanguard 2 - Pass Details

Date: 13 August 2020
Orbit: 553 x 2937 km, 32.9° (Epoch: 20 September)

Event Time Altitude Azimuth Distance (km) Brightness Sun altitude
Rises 20:43:00 0° 244° (WSW) 6,633 13.0 -6.0°
Reaches altitude 10° 20:47:18 10° 242° (WSW) 5,718 12.5 -6.8°
Maximum altitude 21:05:10 70° 163° (SSE) 2,871 10.2 -10.1°
Drops below altitude 10° 21:19:12 10° 84° (E) 4,635 11.0 -12.7°
Enters shadow 21:20:47 - 83° (E) 5,008 11.2 -13.0°
Sets 21:22:16 0° 82° (E) 5,369 - -13.2°
